Regional Weather Roundup
Issued by NWS

Home | Current Version | Previous Version | Graphics & Text | Print | Product List | Glossary On
Versions: 1 2 3 4 5 6 7 8 9 10 11 12 13 14 15 16 17 18 19 20 21 22 23 24 25 26 27 28 29 30 31 32 33 34 35 36 37 38 39 40 41 42 43 44 45 46 47 48 49 50
000
ASUS45 KBOU 301207
RWRCO

WEATHER ROUNDUP FOR COLORADO
NATIONAL WEATHER SERVICE DENVER/BOULDER CO
600 AM MDT SAT AUG 30 2014

NOTE: "FAIR" INDICATES FEW OR NO CLOUDS BELOW 12000 FEET WITH NO
SIGNIFICANT WEATHER AND/OR OBSTRUCTIONS TO VISIBILITY.

COZ001>005-013-030-031-301300-
...NORTHWEST COLORADO...

CITY           SKY/WX    TMP DP  RH WIND       PRES   REMARKS
CRAIG          CLEAR     45  42  89 CALM      30.17S
HAYDEN         CLEAR     48  41  76 E8        30.19S
MEEKER         CLEAR     48  42  80 E6        30.20S
MOUNT WERNER   NOT AVBL
STEAMBOAT SPGS CLEAR     44  42  93 CALM      30.23S
WALDEN         CLEAR     39  36  87 SE6       30.28S
$$

COZ006>008-011-301300-
...WEST CENTRAL VALLEYS...

CITY           SKY/WX    TMP DP  RH WIND       PRES   REMARKS
GRAND JUNCTION PTCLDY    58  49  72 SE10      30.09S
MONTROSE       CLEAR     52  44  74 S5        30.19R
EAGLE          CLEAR     45  43  93 CALM      30.29R
RIFLE          CLEAR     50  46  86 E3        30.17R
DELTA          CLEAR     55  46  71 CALM      30.16R HAZE
NUCLA          CLEAR     52  43  71 E7        30.21S
$$

COZ017>023-064>068-301300-
...SOUTHWEST COLORADO...

CITY           SKY/WX    TMP DP  RH WIND       PRES   REMARKS
DURANGO        CLEAR     48  41  76 NE7       30.24R
CORTEZ         CLEAR     45  42  89 NE3       30.19R
PAGOSA SPRINGS CLEAR     44  36  72 CALM      30.31R
TELLURIDE      CLEAR     46  37  71 SE5       30.39R
WOLF CREEK PAS CLEAR     41  32  70 SW8       30.55S
$$

COZ009-010-012-014-032>034-037-058>063-301300-
...CENTRAL COLORADO...

CITY           SKY/WX    TMP DP  RH WIND       PRES   REMARKS
ASPEN          CLEAR     46  38  73 SW6       30.29R
BUENA VISTA    CLEAR     41  36  81 W3        30.34S
COPPER MTN     CLEAR     46  30  53 S7        30.54S
BERTHOUD PASS  FAIR      37  36  93 W14G20    30.56S
COTTONWOOD PAS CLEAR     52  32  46 CALM      30.42S
GUNNISON       CLEAR     43  37  81 CALM      30.36R
KREMMLING      CLEAR     36  34  93 CALM      30.32S
LEADVILLE      CLEAR     33  31  92 S3        30.42S
MONARCH PASS   CLEAR     39  32  75 SW13      30.64S
SALIDA         CLEAR     44  39  84 W5        30.39F
SUNLIGHT       CLEAR     46  37  71 CALM      30.48S
WILKERSON PASS NOT AVBL
$$

COZ069>075-301300-
...SAN LUIS VALLEY/SANGRE DE CRISTO MOUNTAINS...

CITY           SKY/WX    TMP DP  RH WIND       PRES   REMARKS
ALAMOSA        PTCLDY    43  39  86 SE5       30.31R
LA VETA PASS   NOT AVBL
SAGUACHE       NOT AVBL
$$

COZ035-036-038>040-301300-
...NORTHERN COLORADO FRONT RANGE...

CITY           SKY/WX    TMP DP  RH WIND       PRES   REMARKS
DENVER INTL AP PTCLDY    53  44  71 S12       30.10S
DMNS CITY PARK   N/A     56  44  64 S6        30.10S
AURORA         PTCLDY    54  43  64 S10       30.12S
FRONT RANGE AP NOT AVBL
ERIE MUNI ARPT CLEAR     47  44  91 CALM      30.09S
BOULDER MUN AP CLEAR     52  46  82 S3        30.08S
CENTENNIAL     PTCLDY    55  42  61 S7        30.13S
BROOMFIELD     PTCLDY    59  43  55 NE3       30.11F
FORT COLLINS   CLEAR     54  48  82 N5        30.09S
LONGMONT       CLEAR     49  46  91 CALM      30.10S
$$

COZ041-046-047-076>085-087-088-301300-
...PIKES PEAK/PALMER DIVIDE AND SOUTHERN FOOTHILLS...

CITY           SKY/WX    TMP DP  RH WIND       PRES   REMARKS
COLO. SPRINGS  CLEAR     51  44  77 N7        30.19S
A. F. ACADEMY  CLEAR     46  41  85 N10       30.20S
ELLICOTT       CLEAR     51  44  77 S5        30.17F
FALCON         CLEAR     48  41  77 W6        30.22F
FORT CARSON    CLEAR     49  44  81 NW9       30.16F
LIMON          CLEAR     60  44  55 W9G16     30.12F
MONUMENT HILL  CLEAR     46  37  71 S8        30.21S
TRINIDAD       PTCLDY    58  48  69 W12       30.17F
$$

COZ042>045-048>051-090-091-301300-
...NORTHEAST COLORADO...

CITY           SKY/WX    TMP DP  RH WIND       PRES   REMARKS
GREELEY ARPT   CLEAR     48  41  76 NW3       30.08S
AKRON          PTCLDY    56  52  86 SE7       30.07S
BURLINGTON     PTCLDY    53  51  93 SW6       30.07F
WRAY             N/A    N/A N/A N/A SW3       30.05S
STERLING       CLEAR     55  54  94 NW5       30.04S
HOLYOKE        CLEAR     59  55  88 W5        30.04S
FORT MORGAN    CLEAR     55  48  80 CALM      30.07S
$$

COZ086-089-092>099-301300-
...SOUTHEAST COLORADO...

CITY           SKY/WX    TMP DP  RH WIND       PRES   REMARKS
PUEBLO         CLEAR     56  46  69 W7        30.11S
LA JUNTA       CLEAR     58  52  80 SW9       30.09S
LAMAR          PTCLDY    57  51  80 SW6       30.06S
SPRINGFIELD      N/A     57  52  83 CALM      30.11S
$$


USA.gov is the U.S. government's official web portal to all federal, state and local government web resources and services.